Home > Weather > St. John's > Past weeks

Flag for Canada Past Weather in St. John's, Newfoundland and Labrador, Canada — Yesterday and Last 2 Weeks

Now
70 °F

Broken clouds.


Feels Like: 70 °F
Forecast: N/A
Wind: 12 mph from Southwest

Location: St. John's

Current Time: Jul 29, 2016 at 9:17:19 PM

Latest Report: Jul 29, 2016 at 8:30 PM


Visibility: 15 mi

Pressure: 29.97 "Hg

Humidity: 78%

Dew Point: 63 °F

Location of St. John'sLocation

Past Weather in St. John's — Graph

°F

St. John's Temperature Yesterday

Maximum temperature yesterday: 77 °F (at 1:30 PM)
Minimum temperature yesterday: 61 °F (at 12:30 AM)
Average temperature yesterday: 70 °F

High & Low Weather Summary for the Past Weeks

 TemperatureHumidityPressure
High79 °F (Jul 22, 3:30 PM)100% (Jul 15, 3:30 AM)30.17 "Hg (Jul 15, 3:30 AM)
Low54 °F (Jul 21, 2:30 AM)39% (Jul 17, 10:30 AM)29.76 "Hg (Jul 21, 2:30 AM)
Average66 °F83%29.93 "Hg
* Reported Jul 14 7:30 PM — Jul 29 7:30 PM, St. John's, Weather by CustomWeather, © 2016

Note: Actual official high and low records may vary slightly from our data, if they occured in-between our weather recording intervals... More about our weather records

Advertising

St. John's Weather History for the Previous 24 Hours

Scroll right to see more
 ConditionsComfort  
Time TempWeatherWind HumidityBarometerVisibility
7:30 PM
Fri, Jul 29
72 °FBroken clouds.12 mph73%29.97 "Hg15 mi
6:30 PM73 °FPartly sunny.10 mph69%29.97 "Hg15 mi
5:30 PM75 °FPartly sunny.17 mph69%29.96 "Hg15 mi
4:30 PM79 °FPartly sunny.14 mph61%29.95 "Hg15 mi
3:30 PM79 °FPartly sunny.14 mph61%29.96 "Hg15 mi
2:30 PM73 °FPartly sunny.10 mph74%29.97 "Hg15 mi
1:30 PM73 °FPartly sunny.14 mph74%29.98 "Hg15 mi
12:30 PM72 °FOvercast.14 mph83%29.98 "Hg15 mi
11:30 AM70 °FOvercast.10 mph83%29.99 "Hg15 mi
10:30 AM70 °FMore clouds than sun.10 mph83%29.99 "Hg15 mi
9:30 AM68 °FMostly cloudy.9 mph88%29.99 "Hg15 mi
8:30 AM68 °FMostly cloudy.9 mph94%29.99 "Hg10 mi
7:30 AM68 °FLow clouds.8 mph94%29.98 "Hg12 mi
7:16 AM68 °FMore clouds than sun.8 mph94%29.99 "Hg10 mi
6:30 AM66 °FDrizzle. Fog.6 mph100%29.98 "Hg6 mi
5:30 AM66 °FPassing clouds.9 mph100%29.98 "Hg10 mi
4:30 AM66 °FDrizzle. Low clouds.13 mph100%29.98 "Hg12 mi
3:30 AM66 °FDrizzle. Fog.14 mph100%29.98 "Hg1 mi
2:30 AM66 °FFog.10 mph100%29.98 "Hg1 mi
1:30 AM68 °FFog.14 mph94%29.99 "Hg1 mi
12:30 AM68 °FMostly cloudy.12 mph94%29.99 "Hg15 mi
11:30 PM
Thu, Jul 28
68 °FPassing clouds.3 mph94%29.99 "Hg15 mi
10:30 PM68 °FPartly cloudy.6 mph94%29.99 "Hg15 mi
9:30 PM70 °FPassing clouds.6 mph88%30.00 "Hg15 mi
Weather by CustomWeather, © 2016

See weather overviewHow to use our weather pages